| time (UTC) | temp F | wind direction | speed MPH | gust MPH | rain 1hr in | rain 24hr in | rain mn in | humidity % | barometer mb |
| 20260902035815 | 77 | 206 | 0.0 | 2.0 | 0.00 | 0.00 | 0.00 | 76 | 1015.1 |
| 20260902035338 | 78 | 155 | 0.0 | 2.0 | 0.00 | 0.00 | 0.00 | 76 | 1015.2 |
| 20260902034827 | 78 | 227 | 0.0 | 2.0 | 0.00 | 0.00 | 0.00 | 75 | 1015.2 |
| 20260902034329 | 78 | 226 | 0.0 | 1.0 | 0.00 | 0.00 | 0.00 | 75 | 1015.3 |
| 20260902033835 | 78 | 201 | 0.0 | 2.0 | 0.00 | 0.00 | 0.00 | 74 | 1015.1 |
| 20260902033318 | 78 | 200 | 0.0 | 2.0 | 0.00 | 0.00 | 0.00 | 73 | 1014.9 |
| 20260902032820 | 78 | 199 | 1.0 | 2.0 | 0.00 | 0.00 | 0.00 | 73 | 1014.9 |
| 20260902032322 | 78 | 14 | 1.0 | 3.0 | 0.00 | 0.00 | 0.00 | 74 | 1014.9 |
| 20260902031830 | 78 | 274 | 0.0 | 3.0 | 0.00 | 0.00 | 0.00 | 74 | 1015.1 |
| 20260902031400 | 78 | 226 | 1.0 | 3.0 | 0.00 | 0.00 | 0.00 | 75 | 1015.2 |
| 20260902030819 | 77 | 219 | 1.0 | 2.0 | 0.00 | 0.00 | 0.00 | 76 | 1015.3 |
| 20260902030321 | 77 | 225 | 1.0 | 2.0 | 0.00 | 0.00 | 0.00 | 77 | 1015.3 |
| 20260902025823 | 76 | 227 | 0.0 | 2.0 | 0.00 | 0.00 | 0.00 | 78 | 1015.4 |
| 20260902025331 | 76 | 273 | 0.0 | 1.0 | 0.00 | 0.00 | 0.00 | 79 | 1015.4 |
| 20260902024813 | 76 | 304 | 0.0 | 1.0 | 0.00 | 0.00 | 0.00 | 79 | 1015.5 |
| 20260902024316 | 76 | 343 | 0.0 | 1.0 | 0.00 | 0.00 | 0.00 | 80 | 1015.5 |
| 20260902023823 | 76 | 342 | 0.0 | 1.0 | 0.00 | 0.00 | 0.00 | 80 | 1015.5 |
| 20260902023325 | 76 | 341 | 0.0 | 1.0 | 0.00 | 0.00 | 0.00 | 80 | 1015.5 |
| 20260902022833 | 76 | 360 | 0.0 | 1.0 | 0.00 | 0.00 | 0.00 | 80 | 1015.5 |
| 20260902022314 | 76 | 334 | 0.0 | 1.0 | 0.00 | 0.00 | 0.00 | 81 | 1015.4 |
| 20260902021843 | 76 | 334 | 0.0 | 2.0 | 0.00 | 0.00 | 0.00 | 81 | 1015.4 |
| 20260902021324 | 76 | 334 | 0.0 | 2.0 | 0.00 | 0.00 | 0.00 | 81 | 1015.4 |
| 20260902020823 | 76 | 172 | 0.0 | 1.0 | 0.00 | 0.00 | 0.00 | 81 | 1015.4 |
| 20260902020331 | 76 | 204 | 0.0 | 3.0 | 0.00 | 0.00 | 0.00 | 81 | 1015.5 |
| 20260902015813 | 76 | 175 | 0.0 | 3.0 | 0.00 | 0.00 | 0.00 | 81 | 1015.5 |
| 20260902015340 | 76 | 195 | 1.0 | 3.0 | 0.00 | 0.00 | 0.00 | 81 | 1015.5 |
| 20260902014821 | 76 | 86 | 0.0 | 2.0 | 0.00 | 0.00 | 0.00 | 81 | 1015.4 |
| 20260902014323 | 76 | 113 | 0.0 | 2.0 | 0.00 | 0.00 | 0.00 | 81 | 1015.3 |
| 20260902013850 | 76 | 161 | 0.0 | 1.0 | 0.00 | 0.00 | 0.00 | 81 | 1015.3 |
| 20260902013311 | 76 | 164 | 0.0 | 1.0 | 0.00 | 0.00 | 0.00 | 81 | 1015.3 |
| 20260902012821 | 76 | 101 | 0.0 | 2.0 | 0.00 | 0.00 | 0.00 | 81 | 1015.3 |
| 20260902012320 | 76 | 98 | 0.0 | 4.0 | 0.00 | 0.00 | 0.00 | 81 | 1015.3 |
| 20260902011848 | 76 | 218 | 0.0 | 4.0 | 0.00 | 0.00 | 0.00 | 81 | 1015.3 |
| 20260902011328 | 76 | 28 | 0.0 | 2.0 | 0.00 | 0.00 | 0.00 | 81 | 1015.3 |
| 20260902010834 | 76 | 67 | 0.0 | 2.0 | 0.00 | 0.00 | 0.00 | 81 | 1015.1 |
| 20260902010315 | 77 | 77 | 1.0 | 3.0 | 0.00 | 0.00 | 0.00 | 81 | 1015.0 |
| 20260902005823 | 77 | 108 | 0.0 | 3.0 | 0.00 | 0.00 | 0.00 | 81 | 1015.2 |
| 20260902005342 | 77 | 219 | 1.0 | 2.0 | 0.00 | 0.00 | 0.00 | 81 | 1015.3 |
| 20260902004830 | 77 | 139 | 0.0 | 2.0 | 0.00 | 0.00 | 0.00 | 81 | 1015.0 |
| 20260902004352 | 77 | 194 | 1.0 | 2.0 | 0.00 | 0.00 | 0.00 | 82 | 1014.9 |
| 20260902003840 | 77 | 93 | 0.0 | 3.0 | 0.00 | 0.00 | 0.00 | 82 | 1014.9 |
| 20260902003321 | 77 | 208 | 1.0 | 3.0 | 0.00 | 0.00 | 0.00 | 82 | 1015.0 |
| 20260902002829 | 76 | 94 | 1.0 | 3.0 | 0.00 | 0.00 | 0.00 | 82 | 1014.9 |
| 20260902002330 | 76 | 73 | 1.0 | 3.0 | 0.00 | 0.00 | 0.00 | 82 | 1014.7 |
| 20260902001812 | 76 | 69 | 1.0 | 3.0 | 0.00 | 0.00 | 0.00 | 82 | 1014.7 |
| 20260902001313 | 76 | 74 | 1.0 | 3.0 | 0.00 | 0.00 | 0.00 | 82 | 1014.7 |
| 20260902000820 | 76 | 74 | 1.0 | 3.0 | 0.00 | 0.00 | 0.00 | 82 | 1014.8 |
| 20260902000322 | 76 | 304 | 0.0 | 2.0 | 0.00 | 0.00 | 0.00 | 82 | 1015.0 |
| 20260901235852 | 76 | 178 | 1.0 | 3.0 | 0.00 | 0.00 | 0.00 | 81 | 1015.0 |
| 20260901235311 | 77 | 228 | 2.0 | 5.0 | 0.00 | 0.00 | 0.00 | 81 | 1015.1 |
| 20260901234839 | 77 | 147 | 1.0 | 5.0 | 0.00 | 0.00 | 0.00 | 81 | 1015.1 |
| 20260901234317 | 77 | 165 | 1.0 | 7.0 | 0.00 | 0.00 | 0.00 | 81 | 1015.2 |
| 20260901233823 | 77 | 194 | 1.0 | 7.0 | 0.00 | 0.00 | 0.00 | 81 | 1015.2 |
| 20260901233325 | 77 | 203 | 1.0 | 4.0 | 0.00 | 0.00 | 0.00 | 81 | 1015.2 |
| 20260901232834 | 77 | 213 | 1.0 | 5.0 | 0.00 | 0.00 | 0.00 | 81 | 1015.3 |
| 20260901232315 | 78 | 200 | 0.0 | 5.0 | 0.00 | 0.00 | 0.00 | 81 | 1015.4 |
| 20260901231817 | 78 | 275 | 2.0 | 4.0 | 0.00 | 0.00 | 0.00 | 80 | 1015.5 |
| 20260901231326 | 78 | 163 | 1.0 | 3.0 | 0.00 | 0.00 | 0.00 | 80 | 1015.4 |
| 20260901230825 | 78 | 227 | 1.0 | 3.0 | 0.00 | 0.00 | 0.00 | 80 | 1015.4 |
| 20260901230326 | 78 | 222 | 1.0 | 3.0 | 0.00 | 0.00 | 0.00 | 80 | 1015.5 |
| 20260901225836 | 78 | 214 | 1.0 | 3.0 | 0.00 | 0.00 | 0.00 | 80 | 1015.4 |
| 20260901225316 | 78 | 222 | 1.0 | 4.0 | 0.00 | 0.00 | 0.00 | 80 | 1015.5 |
| 20260901224825 | 78 | 218 | 1.0 | 4.0 | 0.00 | 0.00 | 0.00 | 80 | 1015.5 |
| 20260901224346 | 78 | 220 | 1.0 | 4.0 | 0.00 | 0.00 | 0.00 | 80 | 1015.4 |
| 20260901223831 | 78 | 216 | 2.0 | 6.0 | 0.00 | 0.00 | 0.00 | 79 | 1015.5 |
| 20260901223312 | 79 | 218 | 2.0 | 6.0 | 0.00 | 0.00 | 0.00 | 79 | 1015.5 |
| 20260901222813 | 79 | 221 | 1.0 | 3.0 | 0.00 | 0.00 | 0.00 | 80 | 1015.4 |
| 20260901222314 | 79 | 247 | 0.0 | 2.0 | 0.00 | 0.00 | 0.00 | 80 | 1015.4 |
| 20260901221821 | 78 | 247 | 0.0 | 3.0 | 0.00 | 0.00 | 0.00 | 80 | 1015.4 |
| 20260901221324 | 78 | 179 | 1.0 | 5.0 | 0.00 | 0.00 | 0.00 | 80 | 1015.4 |
| 20260901220830 | 78 | 211 | 2.0 | 5.0 | 0.00 | 0.00 | 0.00 | 80 | 1015.4 |
| 20260901220312 | 78 | 211 | 2.0 | 6.0 | 0.00 | 0.00 | 0.00 | 80 | 1015.5 |
| 20260901215813 | 78 | 228 | 3.0 | 6.0 | 0.00 | 0.00 | 0.00 | 80 | 1015.5 |
| 20260901215315 | 78 | 208 | 1.0 | 5.0 | 0.00 | 0.00 | 0.00 | 80 | 1015.5 |
| 20260901214823 | 78 | 286 | 3.0 | 4.0 | 0.00 | 0.00 | 0.00 | 80 | 1015.8 |
| 20260901214325 | 78 | 208 | 2.0 | 4.0 | 0.00 | 0.00 | 0.00 | 80 | 1015.6 |
| 20260901213833 | 78 | 222 | 1.0 | 5.0 | 0.00 | 0.00 | 0.00 | 79 | 1015.7 |
| 20260901213315 | 78 | 204 | 2.0 | 6.0 | 0.00 | 0.00 | 0.00 | 79 | 1015.7 |
| 20260901212815 | 79 | 117 | 3.0 | 6.0 | 0.00 | 0.00 | 0.00 | 78 | 1015.7 |
| 20260901212317 | 79 | 215 | 3.0 | 6.0 | 0.00 | 0.00 | 0.00 | 77 | 1015.7 |
| 20260901211828 | 80 | 227 | 3.0 | 6.0 | 0.00 | 0.00 | 0.00 | 76 | 1015.8 |
| 20260901211330 | 81 | 211 | 2.0 | 5.0 | 0.00 | 0.00 | 0.00 | 76 | 1015.8 |
| 20260901210836 | 81 | 234 | 2.0 | 4.0 | 0.00 | 0.00 | 0.00 | 76 | 1015.8 |
| 20260901210318 | 81 | 238 | 2.0 | 4.0 | 0.00 | 0.00 | 0.00 | 76 | 1015.9 |
| 20260901205819 | 81 | 213 | 2.0 | 4.0 | 0.00 | 0.00 | 0.00 | 76 | 1015.8 |
| 20260901205320 | 81 | 216 | 2.0 | 5.0 | 0.00 | 0.00 | 0.00 | 76 | 1015.8 |
| 20260901204849 | 81 | 276 | 3.0 | 5.0 | 0.00 | 0.00 | 0.00 | 76 | 1015.9 |
| 20260901204337 | 81 | 229 | 2.0 | 7.0 | 0.00 | 0.00 | 0.00 | 77 | 1015.8 |
| 20260901203817 | 81 | 232 | 3.0 | 7.0 | 0.00 | 0.00 | 0.00 | 76 | 1015.8 |
| 20260901203318 | 81 | 212 | 2.0 | 5.0 | 0.00 | 0.00 | 0.00 | 76 | 1015.8 |
| 20260901202820 | 81 | 207 | 3.0 | 5.0 | 0.00 | 0.00 | 0.00 | 75 | 1015.9 |
| 20260901202329 | 81 | 219 | 2.0 | 5.0 | 0.00 | 0.00 | 0.00 | 75 | 1015.9 |
| 20260901201811 | 82 | 221 | 2.0 | 5.0 | 0.00 | 0.00 | 0.00 | 75 | 1015.9 |
| 20260901201313 | 81 | 217 | 2.0 | 6.0 | 0.00 | 0.00 | 0.00 | 76 | 1015.9 |
| 20260901200842 | 81 | 232 | 2.0 | 6.0 | 0.00 | 0.00 | 0.00 | 76 | 1015.8 |
| 20260901200322 | 81 | 232 | 2.0 | 5.0 | 0.00 | 0.00 | 0.00 | 76 | 1015.8 |
| 20260901195832 | 80 | 219 | 2.0 | 5.0 | 0.00 | 0.00 | 0.00 | 77 | 1015.7 |
| 20260901195313 | 80 | 219 | 2.0 | 6.0 | 0.00 | 0.00 | 0.00 | 77 | 1015.7 |
| 20260901194815 | 80 | 241 | 3.0 | 6.0 | 0.00 | 0.00 | 0.00 | 77 | 1015.8 |
| 20260901194326 | 80 | 221 | 4.0 | 6.0 | 0.00 | 0.00 | 0.00 | 75 | 1015.8 |
| 20260901193846 | 81 | 244 | 2.0 | 5.0 | 0.00 | 0.00 | 0.00 | 77 | 1015.9 |
| 20260901193333 | 81 | 178 | 2.0 | 6.0 | 0.00 | 0.00 | 0.00 | 77 | 1015.9 |
| 20260901192815 | 81 | 201 | 3.0 | 6.0 | 0.00 | 0.00 | 0.00 | 76 | 1015.9 |
| 20260901192317 | 80 | 216 | 2.0 | 7.0 | 0.00 | 0.00 | 0.00 | 78 | 1015.9 |
| 20260901191329 | 80 | 213 | 2.0 | 6.0 | 0.00 | 0.00 | 0.00 | 78 | 1016.0 |
| 20260901190829 | 80 | 223 | 4.0 | 6.0 | 0.00 | 0.00 | 0.00 | 77 | 1015.9 |
| 20260901190334 | 80 | 215 | 3.0 | 7.0 | 0.00 | 0.00 | 0.00 | 77 | 1016.0 |
| 20260901185815 | 80 | 221 | 4.0 | 7.0 | 0.00 | 0.00 | 0.00 | 76 | 1015.9 |
| 20260901185318 | 80 | 221 | 2.0 | 6.0 | 0.00 | 0.00 | 0.00 | 77 | 1015.9 |
| 20260901184819 | 80 | 233 | 3.0 | 6.0 | 0.00 | 0.00 | 0.00 | 78 | 1015.9 |
| 20260901184313 | 80 | 227 | 2.0 | 6.0 | 0.00 | 0.00 | 0.00 | 78 | 1015.9 |
| 20260901183814 | 79 | 219 | 3.0 | 7.0 | 0.00 | 0.00 | 0.00 | 78 | 1015.9 |
| 20260901183317 | 79 | 223 | 3.0 | 7.0 | 0.00 | 0.00 | 0.00 | 78 | 1015.9 |
| 20260901182818 | 79 | 216 | 2.0 | 7.0 | 0.00 | 0.00 | 0.00 | 79 | 1015.9 |
| 20260901182320 | 79 | 246 | 3.0 | 7.0 | 0.00 | 0.00 | 0.00 | 80 | 1015.9 |
| 20260901181828 | 78 | 244 | 3.0 | 7.0 | 0.00 | 0.00 | 0.00 | 80 | 1015.9 |
| 20260901181337 | 78 | 214 | 3.0 | 7.0 | 0.00 | 0.00 | 0.00 | 80 | 1015.9 |
| 20260901180818 | 78 | 226 | 2.0 | 8.0 | 0.00 | 0.17 | 0.00 | 81 | 1015.9 |
| 20260901180320 | 78 | 248 | 3.0 | 7.0 | 0.00 | 0.17 | 0.00 | 81 | 1016.0 |
| 20260901175848 | 77 | 209 | 3.0 | 8.0 | 0.00 | 0.17 | 0.00 | 81 | 1015.9 |
| 20260901175329 | 77 | 199 | 4.0 | 8.0 | 0.00 | 0.17 | 0.00 | 81 | 1015.9 |
| 20260901174839 | 77 | 207 | 2.0 | 8.0 | 0.00 | 0.17 | 0.00 | 81 | 1016.0 |
| 20260901174320 | 77 | 225 | 3.0 | 8.0 | 0.00 | 0.17 | 0.00 | 81 | 1016.0 |
| 20260901173821 | 77 | 231 | 5.0 | 7.0 | 0.00 | 0.17 | 0.00 | 81 | 1016.1 |
| 20260901173329 | 77 | 214 | 3.0 | 6.0 | 0.00 | 0.17 | 0.00 | 82 | 1016.0 |
| 20260901172830 | 76 | 263 | 2.0 | 7.0 | 0.00 | 0.17 | 0.00 | 83 | 1016.1 |
| 20260901172311 | 76 | 211 | 5.0 | 7.0 | 0.00 | 0.17 | 0.00 | 82 | 1016.1 |
| 20260901171820 | 76 | 221 | 4.0 | 6.0 | 0.00 | 0.17 | 0.00 | 82 | 1016.1 |
| 20260901171319 | 76 | 221 | 3.0 | 5.0 | 0.00 | 0.17 | 0.00 | 82 | 1016.1 |
| 20260901170820 | 76 | 216 | 3.0 | 5.0 | 0.00 | 0.18 | 0.00 | 82 | 1016.1 |
| 20260901170328 | 76 | 213 | 2.0 | 5.0 | 0.00 | 0.18 | 0.00 | 82 | 1016.1 |
| 20260901165813 | 76 | 214 | 3.0 | 5.0 | 0.00 | 0.18 | 0.00 | 82 | 1016.1 |
| 20260901165315 | 76 | 208 | 1.0 | 4.0 | 0.00 | 0.18 | 0.00 | 82 | 1016.0 |
| 20260901164824 | 76 | 225 | 1.0 | 6.0 | 0.00 | 0.18 | 0.00 | 82 | 1016.1 |
| 20260901164326 | 76 | 215 | 4.0 | 6.0 | 0.00 | 0.18 | 0.00 | 81 | 1016.2 |
| 20260901163827 | 76 | 232 | 3.0 | 6.0 | 0.00 | 0.18 | 0.00 | 82 | 1016.1 |
| 20260901163336 | 76 | 216 | 4.0 | 6.0 | 0.00 | 0.18 | 0.00 | 82 | 1016.1 |
| 20260901162817 | 76 | 224 | 2.0 | 6.0 | 0.00 | 0.18 | 0.00 | 82 | 1016.0 |
| 20260901162320 | 76 | 220 | 4.0 | 6.0 | 0.00 | 0.18 | 0.00 | 82 | 1016.1 |
| 20260901161828 | 76 | 219 | 4.0 | 6.0 | 0.00 | 0.18 | 0.00 | 82 | 1016.1 |
| 20260901161331 | 76 | 219 | 3.0 | 5.0 | 0.00 | 0.18 | 0.00 | 82 | 1016.0 |
| 20260901160812 | 76 | 222 | 1.0 | 4.0 | 0.00 | 0.18 | 0.00 | 82 | 1016.1 |
| 20260901160342 | 76 | 219 | 2.0 | 4.0 | 0.00 | 0.18 | 0.00 | 82 | 1016.1 |
| 20260901155823 | 76 | 218 | 3.0 | 4.0 | 0.00 | 0.18 | 0.00 | 82 | 1016.1 |
| 20260901155331 | 76 | 221 | 2.0 | 4.0 | 0.00 | 0.18 | 0.00 | 82 | 1016.2 |
| 20260901154813 | 76 | 219 | 2.0 | 5.0 | 0.00 | 0.18 | 0.00 | 82 | 1016.1 |
| 20260901154315 | 76 | 211 | 4.0 | 5.0 | 0.00 | 0.18 | 0.00 | 82 | 1016.1 |
| 20260901153816 | 76 | 222 | 2.0 | 4.0 | 0.00 | 0.18 | 0.00 | 82 | 1016.2 |
| 20260901153325 | 76 | 227 | 2.0 | 3.0 | 0.00 | 0.18 | 0.00 | 82 | 1016.1 |
| 20260901152827 | 76 | 219 | 2.0 | 3.0 | 0.00 | 0.18 | 0.00 | 82 | 1016.1 |
| 20260901152335 | 76 | 239 | 1.0 | 3.0 | 0.00 | 0.18 | 0.00 | 82 | 1016.0 |
| 20260901151817 | 76 | 224 | 1.0 | 4.0 | 0.00 | 0.18 | 0.00 | 83 | 1016.0 |
| 20260901151321 | 75 | 221 | 2.0 | 4.0 | 0.00 | 0.18 | 0.00 | 82 | 1016.0 |
| 20260901150850 | 75 | 237 | 1.0 | 4.0 | 0.00 | 0.18 | 0.00 | 82 | 1015.9 |
| 20260901150330 | 75 | 233 | 2.0 | 4.0 | 0.00 | 0.18 | 0.00 | 83 | 1015.9 |
| 20260901145811 | 75 | 229 | 2.0 | 3.0 | 0.00 | 0.18 | 0.00 | 83 | 1015.9 |
| 20260901145340 | 75 | 228 | 1.0 | 3.0 | 0.00 | 0.18 | 0.00 | 83 | 1015.9 |
| 20260901144821 | 75 | 207 | 1.0 | 3.0 | 0.00 | 0.18 | 0.00 | 83 | 1015.9 |
| 20260901144331 | 75 | 227 | 1.0 | 2.0 | 0.00 | 0.18 | 0.00 | 84 | 1015.9 |
| 20260901143829 | 75 | 232 | 1.0 | 2.0 | 0.00 | 0.18 | 0.00 | 84 | 1016.1 |
| 20260901143338 | 75 | 232 | 1.0 | 4.0 | 0.00 | 0.18 | 0.00 | 84 | 1016.1 |
| 20260901142817 | 75 | 231 | 1.0 | 4.0 | 0.00 | 0.18 | 0.00 | 84 | 1016.0 |
| 20260901142318 | 75 | 232 | 1.0 | 3.0 | 0.00 | 0.18 | 0.00 | 84 | 1015.9 |
| 20260901141820 | 75 | 231 | 0.0 | 3.0 | 0.00 | 0.18 | 0.00 | 84 | 1016.0 |
| 20260901141329 | 75 | 232 | 1.0 | 3.0 | 0.00 | 0.18 | 0.00 | 84 | 1016.0 |
| 20260901140829 | 75 | 228 | 1.0 | 3.0 | 0.00 | 0.18 | 0.00 | 84 | 1016.1 |
| 20260901140357 | 75 | 223 | 2.0 | 3.0 | 0.00 | 0.18 | 0.00 | 84 | 1016.1 |
| 20260901135840 | 75 | 226 | 1.0 | 4.0 | 0.00 | 0.18 | 0.00 | 84 | 1016.0 |
| 20260901135328 | 75 | 239 | 2.0 | 4.0 | 0.00 | 0.18 | 0.00 | 84 | 1015.9 |
| 20260901134830 | 74 | 215 | 2.0 | 5.0 | 0.00 | 0.18 | 0.00 | 85 | 1015.9 |
| 20260901134313 | 74 | 233 | 1.0 | 5.0 | 0.00 | 0.18 | 0.00 | 85 | 1015.9 |
| 20260901133815 | 74 | 231 | 1.0 | 4.0 | 0.00 | 0.18 | 0.00 | 85 | 1015.8 |
| 20260901133342 | 74 | 225 | 1.0 | 3.0 | 0.00 | 0.18 | 0.00 | 85 | 1015.8 |
| 20260901132829 | 74 | 360 | 2.0 | 4.0 | 0.00 | 0.18 | 0.00 | 85 | 1015.8 |
| 20260901132311 | 74 | 213 | 2.0 | 4.0 | 0.00 | 0.18 | 0.00 | 85 | 1015.8 |
| 20260901131813 | 74 | 219 | 1.0 | 5.0 | 0.00 | 0.18 | 0.00 | 85 | 1015.8 |
| 20260901131342 | 74 | 224 | 1.0 | 5.0 | 0.00 | 0.18 | 0.00 | 85 | 1015.8 |
| 20260901130822 | 74 | 199 | 2.0 | 135.0 | 0.00 | 0.23 | 0.00 | 85 | 1015.8 |
| 20260901130331 | 74 | 225 | 2.0 | 135.0 | 0.00 | 0.23 | 0.00 | 85 | 1015.8 |
| 20260901125812 | 74 | 360 | 133.0 | 135.0 | 0.00 | 0.23 | 0.00 | 85 | 1015.8 |
| 20260901125333 | 74 | 360 | 133.0 | 136.0 | 0.00 | 0.23 | 0.00 | 86 | 1015.7 |
| 20260901124820 | 74 | 360 | 133.0 | 134.0 | 0.00 | 0.23 | 0.00 | 86 | 1015.7 |
| 20260901124350 | 74 | 224 | 133.0 | 136.0 | 0.00 | 0.23 | 0.00 | 86 | 1015.7 |
| 20260901123829 | 74 | 221 | 133.0 | 136.0 | 0.00 | 0.23 | 0.00 | 86 | 1015.7 |
| 20260901123311 | 74 | 227 | 135.0 | 138.0 | 0.00 | 0.23 | 0.00 | 86 | 1015.7 |
| 20260901122820 | 74 | 234 | 135.0 | 136.0 | 0.00 | 0.23 | 0.00 | 85 | 1015.6 |
| 20260901122322 | 73 | 234 | 135.0 | 138.0 | 0.00 | 0.23 | 0.00 | 85 | 1015.5 |
| 20260901121824 | 73 | 236 | 135.0 | 138.0 | 0.00 | 0.23 | 0.00 | 85 | 1015.5 |
| 20260901121314 | 73 | 236 | 135.0 | 138.0 | 0.00 | 0.23 | 0.00 | 85 | 1015.4 |
| 20260901120814 | 73 | 236 | 135.0 | 138.0 | 0.00 | 0.27 | 0.00 | 85 | 1015.5 |
| 20260901120315 | 73 | 236 | 135.0 | 138.0 | 0.00 | 0.27 | 0.00 | 85 | 1015.3 |
| 20260901115824 | 73 | 232 | 135.0 | 138.0 | 0.00 | 0.27 | 0.00 | 85 | 1015.3 |
| 20260901115326 | 73 | 237 | 135.0 | 138.0 | 0.00 | 0.27 | 0.00 | 85 | 1015.4 |
| 20260901114856 | 73 | 236 | 135.0 | 138.0 | 0.00 | 0.27 | 0.00 | 86 | 1015.4 |
| 20260901114317 | 73 | 234 | 135.0 | 137.0 | 0.00 | 0.27 | 0.00 | 86 | 1015.3 |
| 20260901113818 | 73 | 25 | 136.0 | 137.0 | 0.00 | 0.27 | 0.00 | 86 | 1015.2 |
| 20260901113327 | 73 | 26 | 136.0 | 137.0 | 0.00 | 0.27 | 0.00 | 86 | 1015.2 |
| 20260901112828 | 73 | 25 | 136.0 | 137.0 | 0.00 | 0.27 | 0.00 | 86 | 1015.1 |
| 20260901112336 | 73 | 24 | 136.0 | 137.0 | 0.00 | 0.27 | 0.00 | 86 | 1015.1 |
| 20260901111816 | 73 | 26 | 136.0 | 137.0 | 0.00 | 0.27 | 0.00 | 85 | 1015.1 |
| 20260901111346 | 73 | 26 | 136.0 | 137.0 | 0.00 | 0.27 | 0.00 | 86 | 1015.0 |
| 20260901110826 | 73 | 24 | 136.0 | 137.0 | 0.00 | 0.27 | 0.00 | 86 | 1015.0 |
| 20260901110328 | 73 | 25 | 136.0 | 137.0 | 0.00 | 0.27 | 0.00 | 85 | 1014.9 |
| 20260901105837 | 73 | 25 | 136.0 | 137.0 | 0.00 | 0.27 | 0.00 | 85 | 1014.9 |
| 20260901105346 | 73 | 26 | 136.0 | 137.0 | 0.00 | 0.27 | 0.00 | 85 | 1014.7 |
| 20260901104827 | 73 | 24 | 136.0 | 137.0 | 0.00 | 0.27 | 0.00 | 85 | 1014.6 |
| 20260901104329 | 73 | 25 | 136.0 | 137.0 | 0.00 | 0.27 | 0.00 | 85 | 1014.7 |
| 20260901103836 | 73 | 24 | 136.0 | 137.0 | 0.00 | 0.27 | 0.00 | 85 | 1014.7 |
| 20260901103317 | 73 | 23 | 136.0 | 137.0 | 0.00 | 0.27 | 0.00 | 85 | 1014.8 |
| 20260901102819 | 73 | 24 | 136.0 | 137.0 | 0.00 | 0.27 | 0.00 | 85 | 1014.7 |
| 20260901102327 | 73 | 23 | 136.0 | 136.0 | 0.00 | 0.27 | 0.00 | 85 | 1014.7 |
| 20260901101829 | 73 | 24 | 136.0 | 136.0 | 0.00 | 0.27 | 0.00 | 85 | 1014.8 |
| 20260901101331 | 73 | 24 | 136.0 | 136.0 | 0.00 | 0.27 | 0.00 | 85 | 1014.9 |
| 20260901100813 | 73 | 288 | 137.0 | 139.0 | 0.00 | 0.27 | 0.00 | 85 | 1014.7 |
| 20260901100322 | 73 | 360 | 138.0 | 139.0 | 0.00 | 0.27 | 0.00 | 85 | 1014.8 |
| 20260901095822 | 73 | 279 | 138.0 | 140.0 | 0.00 | 0.27 | 0.00 | 85 | 1014.7 |
| 20260901095352 | 73 | 279 | 137.0 | 139.0 | 0.00 | 0.27 | 0.00 | 85 | 1014.8 |
| 20260901094834 | 73 | 246 | 136.0 | 138.0 | 0.00 | 0.27 | 0.00 | 85 | 1014.8 |
| 20260901094322 | 73 | 242 | 136.0 | 138.0 | 0.00 | 0.27 | 0.00 | 85 | 1014.7 |
| 20260901093843 | 73 | 360 | 43.0 | 138.0 | 0.00 | 0.27 | 0.00 | 85 | 1014.8 |
| 20260901093329 | 73 | 360 | 0.0 | 32.0 | 0.00 | 0.27 | 0.00 | 85 | 1014.8 |
| 20260901092831 | 73 | 242 | 0.0 | 2.0 | 0.00 | 0.27 | 0.00 | 85 | 1014.8 |
| 20260901092318 | 73 | 242 | 0.0 | 2.0 | 0.00 | 0.27 | 0.00 | 85 | 1014.7 |
| 20260901091817 | 73 | 243 | 0.0 | 2.0 | 0.00 | 0.27 | 0.00 | 85 | 1014.8 |
| 20260901091320 | 73 | 244 | 0.0 | 2.0 | 0.00 | 0.27 | 0.00 | 85 | 1014.7 |
| 20260901090828 | 73 | 244 | 0.0 | 2.0 | 0.00 | 0.27 | 0.00 | 85 | 1014.7 |
| 20260901090330 | 73 | 360 | 0.0 | 3.0 | 0.00 | 0.27 | 0.00 | 85 | 1014.6 |
| 20260901085837 | 73 | 360 | 1.0 | 3.0 | 0.00 | 0.27 | 0.00 | 85 | 1014.8 |
| 20260901085319 | 73 | 350 | 0.0 | 3.0 | 0.00 | 0.27 | 0.00 | 85 | 1014.7 |
| 20260901084821 | 73 | 350 | 0.0 | 3.0 | 0.00 | 0.27 | 0.00 | 85 | 1014.8 |
| 20260901084323 | 73 | 360 | 0.0 | 1.0 | 0.00 | 0.27 | 0.00 | 85 | 1014.7 |
| 20260901083829 | 73 | 350 | 0.0 | 1.0 | 0.00 | 0.27 | 0.00 | 85 | 1014.8 |
| 20260901083319 | 73 | 350 | 0.0 | 2.0 | 0.00 | 0.27 | 0.00 | 85 | 1014.7 |
| 20260901082819 | 73 | 360 | 0.0 | 2.0 | 0.00 | 0.27 | 0.00 | 85 | 1014.6 |
| 20260901082321 | 73 | 346 | 1.0 | 2.0 | 0.00 | 0.27 | 0.00 | 85 | 1014.6 |
| 20260901081846 | 73 | 273 | 1.0 | 2.0 | 0.00 | 0.27 | 0.00 | 85 | 1014.6 |
| 20260901081329 | 73 | 231 | 0.0 | 2.0 | 0.00 | 0.27 | 0.00 | 85 | 1014.6 |
| 20260901080814 | 73 | 224 | 1.0 | 3.0 | 0.00 | 0.27 | 0.00 | 85 | 1014.7 |
| 20260901080322 | 73 | 96 | 0.0 | 3.0 | 0.00 | 0.27 | 0.00 | 85 | 1014.7 |
| 20260901075824 | 73 | 210 | 0.0 | 3.0 | 0.00 | 0.27 | 0.00 | 85 | 1014.7 |
| 20260901075334 | 73 | 223 | 0.0 | 3.0 | 0.00 | 0.27 | 0.00 | 85 | 1014.7 |
| 20260901074814 | 73 | 360 | 1.0 | 3.0 | 0.00 | 0.27 | 0.00 | 85 | 1014.7 |
| 20260901074313 | 73 | 360 | 1.0 | 3.0 | 0.00 | 0.27 | 0.00 | 85 | 1014.8 |
| 20260901073821 | 73 | 163 | 0.0 | 0.0 | 0.00 | 0.27 | 0.00 | 85 | 1014.8 |
| 20260901073323 | 73 | 115 | 0.0 | 0.0 | 0.00 | 0.27 | 0.00 | 85 | 1014.8 |
| 20260901072832 | 73 | 115 | 0.0 | 0.0 | 0.00 | 0.27 | 0.00 | 85 | 1014.7 |
| 20260901072335 | 73 | 137 | 0.0 | 0.0 | 0.00 | 0.27 | 0.00 | 85 | 1014.7 |
| 20260901071815 | 73 | 190 | 0.0 | 0.0 | 0.00 | 0.27 | 0.00 | 85 | 1014.6 |
| 20260901071341 | 73 | 78 | 0.0 | 0.0 | 0.00 | 0.27 | 0.00 | 85 | 1014.6 |
| 20260901070821 | 73 | 80 | 0.0 | 0.0 | 0.00 | 0.27 | 0.00 | 85 | 1014.6 |
| 20260901070313 | 73 | 100 | 0.0 | 0.0 | 0.00 | 0.27 | 0.00 | 85 | 1014.5 |
| 20260901065814 | 73 | 5 | 0.0 | 0.0 | 0.00 | 0.27 | 0.00 | 85 | 1014.4 |
| 20260901065316 | 73 | 5 | 0.0 | 0.0 | 0.00 | 0.27 | 0.00 | 85 | 1014.4 |
| 20260901064842 | 73 | 5 | 0.0 | 1.0 | 0.00 | 0.27 | 0.00 | 85 | 1014.6 |
| 20260901064324 | 73 | 360 | 0.0 | 1.0 | 0.00 | 0.27 | 0.00 | 84 | 1014.4 |
| 20260901063816 | 73 | 177 | 0.0 | 2.0 | 0.00 | 0.27 | 0.00 | 84 | 1014.6 |
| 20260901063313 | 73 | 360 | 1.0 | 2.0 | 0.00 | 0.27 | 0.00 | 84 | 1014.4 |
| 20260901062822 | 73 | 70 | 0.0 | 2.0 | 0.00 | 0.27 | 0.00 | 84 | 1014.6 |
| 20260901062324 | 73 | 70 | 0.0 | 2.0 | 0.00 | 0.27 | 0.00 | 84 | 1014.5 |
| 20260901061826 | 73 | 72 | 1.0 | 2.0 | 0.00 | 0.27 | 0.00 | 84 | 1014.6 |
| 20260901061319 | 73 | 69 | 0.0 | 1.0 | 0.00 | 0.27 | 0.00 | 84 | 1014.7 |
| 20260901060820 | 73 | 69 | 0.0 | 2.0 | 0.00 | 0.27 | 0.00 | 84 | 1014.7 |
| 20260901060345 | 73 | 69 | 1.0 | 2.0 | 0.00 | 0.27 | 0.00 | 83 | 1014.7 |
| 20260901055825 | 73 | 73 | 0.0 | 2.0 | 0.00 | 0.27 | 0.00 | 84 | 1014.7 |
| 20260901055327 | 73 | 115 | 0.0 | 0.0 | 0.00 | 0.27 | 0.00 | 83 | 1014.7 |
| 20260901054813 | 73 | 115 | 0.0 | 0.0 | 0.00 | 0.27 | 0.00 | 83 | 1014.8 |
| 20260901054320 | 73 | 111 | 0.0 | 1.0 | 0.00 | 0.27 | 0.00 | 83 | 1014.9 |
| 20260901053821 | 74 | 207 | 0.0 | 1.0 | 0.00 | 0.27 | 0.00 | 83 | 1014.8 |
| 20260901053329 | 74 | 209 | 0.0 | 2.0 | 0.00 | 0.27 | 0.00 | 83 | 1014.9 |
| 20260901052831 | 74 | 207 | 0.0 | 2.0 | 0.00 | 0.27 | 0.00 | 83 | 1014.9 |
| 20260901052324 | 74 | 209 | 0.0 | 2.0 | 0.00 | 0.27 | 0.00 | 83 | 1015.0 |
| 20260901051814 | 74 | 172 | 0.0 | 2.0 | 0.00 | 0.27 | 0.00 | 83 | 1014.9 |
| 20260901051335 | 74 | 172 | 0.0 | 2.0 | 0.00 | 0.27 | 0.00 | 82 | 1014.8 |
| 20260901050821 | 74 | 179 | 0.0 | 1.0 | 0.00 | 0.27 | 0.00 | 82 | 1014.8 |
| 20260901050323 | 74 | 210 | 0.0 | 2.0 | 0.00 | 0.27 | 0.00 | 82 | 1014.8 |
| 20260901045827 | 74 | 211 | 0.0 | 2.0 | 0.00 | 0.27 | 0.00 | 82 | 1014.9 |
| 20260901045335 | 74 | 216 | 1.0 | 2.0 | 0.00 | 0.27 | 0.00 | 82 | 1014.9 |
| 20260901044818 | 74 | 189 | 1.0 | 2.0 | 0.00 | 0.27 | 0.00 | 82 | 1014.9 |
| 20260901044321 | 74 | 177 | 0.0 | 1.0 | 0.00 | 0.27 | 0.00 | 82 | 1014.9 |
| 20260901043829 | 74 | 177 | 0.0 | 3.0 | 0.00 | 0.27 | 0.00 | 82 | 1014.9 |
| 20260901043331 | 74 | 176 | 0.0 | 3.0 | 0.00 | 0.27 | 0.00 | 82 | 1014.9 |
| 20260901042813 | 74 | 80 | 0.0 | 2.0 | 0.00 | 0.27 | 0.00 | 81 | 1014.9 |
| 20260901042315 | 74 | 205 | 1.0 | 1.0 | 0.00 | 0.27 | 0.00 | 81 | 1015.0 |
| 20260901041844 | 74 | 211 | 0.0 | 1.0 | 0.00 | 0.27 | 0.00 | 81 | 1015.0 |
| 20260901041332 | 74 | 221 | 0.0 | 2.0 | 0.00 | 0.27 | 0.00 | 81 | 1014.9 |
| 20260901040813 | 74 | 220 | 0.0 | 3.0 | 0.00 | 0.27 | 0.27 | 81 | 1015.0 |
| 20260901040315 | 74 | 217 | 1.0 | 3.0 | 0.00 | 0.27 | 0.27 | 82 | 1014.9 |